This is the latest recevied weather packets stored in our database for station/object DB0SMU-12. If no packets are shown the sender has not sent any weather packets the latest 1 day(s).
| Time | Temp. | Humidity | Pressure | Rain* | Wind** | Luminosity | Snow |
|---|---|---|---|---|---|---|---|
| 1778005250 | 15° C | 69% | 1008.7 hPa | 0 mm | 1.34 m/s, 243° | - | - |
| 1778005069 | 15° C | 68% | 1008.6 hPa | 0 mm | 1.34 m/s, 256° | - | - |
| 1778004889 | 15° C | 68% | 1008.5 hPa | 0 mm | 1.34 m/s, 263° | - | - |
| 1778004708 | 15° C | 68% | 1008.4 hPa | 0 mm | 1.34 m/s, 251° | - | - |
| 1778004527 | 15° C | 69% | 1008.4 hPa | 0 mm | 1.79 m/s, 270° | - | - |
| 1778004346 | 15° C | 68% | 1008.4 hPa | 0 mm | 2.24 m/s, 270° | - | - |
| 1778004165 | 15.56° C | 66% | 1008.2 hPa | 0 mm | 1.34 m/s, 260° | - | - |
| 1778003984 | 15.56° C | 64% | 1008.1 hPa | 0 mm | 0.45 m/s, 345° | - | - |
| 1778003803 | 15.56° C | 63% | 1008 hPa | 0 mm | 0 m/s | - | - |
| 1778003623 | 15.56° C | 65% | 1008 hPa | 0.25 mm | 0 m/s | - | - |
| 1778003442 | 15.56° C | 64% | 1008 hPa | 0.25 mm | 0.45 m/s, 224° | - | - |
| 1778003261 | 15.56° C | 64% | 1008 hPa | 0.25 mm | 0 m/s | - | - |
| 1778003080 | 15.56° C | 63% | 1007.9 hPa | 0.25 mm | 0.89 m/s, 51° | - | - |
| 1778002899 | 15.56° C | 63% | 1007.9 hPa | 0.25 mm | 1.34 m/s, 70° | - | - |
| 1778002718 | 15.56° C | 62% | 1007.9 hPa | 0.25 mm | 1.34 m/s, 25° | - | - |
| 1778002537 | 15.56° C | 62% | 1008.1 hPa | 0.25 mm | 1.34 m/s, 25° | - | - |
| 1778002356 | 15.56° C | 64% | 1008.1 hPa | 0.25 mm | 0.89 m/s, 21° | - | - |
| 1778002175 | 15.56° C | 65% | 1008 hPa | 0.25 mm | 0.89 m/s, 42° | - | - |
| 1778001994 | 15.56° C | 66% | 1007.9 hPa | 0.25 mm | 1.34 m/s, 43° | - | - |
| 1778001813 | 15.56° C | 65% | 1008 hPa | 0.25 mm | 1.34 m/s, 35° | - | - |
| 1778001632 | 15.56° C | 66% | 1008 hPa | 0.25 mm | 1.34 m/s, 347° | - | - |
| 1778001451 | 15.56° C | 64% | 1008.1 hPa | 0.25 mm | 2.24 m/s, 322° | - | - |
| 1778001270 | 15.56° C | 62% | 1008.1 hPa | 0.25 mm | 0.89 m/s, 11° | - | - |
| 1778001089 | 15.56° C | 61% | 1008.2 hPa | 0.25 mm | 1.79 m/s, 321° | - | - |
| 1778000909 | 15.56° C | 61% | 1008.3 hPa | 0.25 mm | 1.79 m/s, 306° | - | - |
* Rain latest hour (hover to see other rain measurements)
** Current wind speed in m/s (hover to see current wind gust speed)